Terminal Aerodrome Forecast
Issued by NWS Shreveport, LA

Home | Current Version | Previous Version | Text Only | Print | Product List | Glossary On
Versions: 1 2 3 4 5 6 7 8 9 10 11 12 13 14 15 16
000
FTUS44 KSHV 242340
TAFTXK
TAF
KTXK 242340Z 2500/2524 16009KT P6SM FEW045
     FM251100 17007KT P6SM OVC015
      TEMPO 2511/2513 4SM BR OVC007
     FM251500 18012KT P6SM SCT025 BKN250=

USA.gov is the U.S. government's official web portal to all federal, state and local government web resources and services.